Вернуться в каталог

FENGYUN 1C DEB

АктивенSSO
NORAD 30822·DEBRIS·🇨🇳 China

Запущен May 10, 1999 с Taiyuan Satellite Launch Center

Loading…

Ближайшие Пролёты (ближайшие 24 часа)

TLE

СвежийSource: Space-Track

Эпоха: Sep 14, 2026, 12:56 UTC

1 30822U 99025AVG 26257.53909838  .00000361  00000-0  21684-3 0  9991
2 30822  98.7116 282.8930 0073134 221.1787 293.4722 14.11642080  5884

Отслеживайте FENGYUN 1C DEB в реальном времени с AllMySat

Download on the App Store